Regional Weather Roundup
Issued by NWS

Home | Current Version | Previous Version | Graphics & Text | Print | Product List | Glossary On
Versions: 1 2 3 4 5 6 7 8 9 10 11 12 13 14 15 16 17 18 19 20 21 22 23 24 25 26 27 28 29 30 31 32 33 34 35 36 37 38 39 40 41 42 43 44 45 46 47 48 49 50
000
ASUS43 KFSD 250110
RWRSD

WEATHER ROUNDUP FOR SOUTH DAKOTA
NATIONAL WEATHER SERVICE SIOUX FALLS SD
800 PM CDT SUN SEP 24 2017

NOTE: "FAIR" INDICATES FEW OR NO CLOUDS BELOW 12,000 FEET WITH NO
SIGNIFICANT WEATHER AND/OR OBSTRUCTIONS TO VISIBILITY.


SDZ001>005-009-010-012>017-250200-
NORTHWEST AND NORTH CENTRAL SOUTH DAKOTA

CITY           SKY/WX    TMP DP  RH WIND       PRES   REMARKS
BUFFALO          N/A     46  40  79 NW10      30.05R
FAITH            N/A     47  47 100 N10       30.09R
MOBRIDGE       CLOUDY    52  47  83 N10       30.04R
$$

SDZ012>016-024>037-041>051-057-063-072>074-250200-
SOUTHWEST AND SOUTH CENTRAL SOUTH DAKOTA

CITY           SKY/WX    TMP DP  RH WIND       PRES   REMARKS
RAPID CTY ARPT CLOUDY    48  41  76 N10       30.09S
PIERRE         CLOUDY    53  46  77 N9        30.04R
CUSTER         CLOUDY    39  37  92 NE7       30.08S FOG
ELLSWORTH AFB  CLOUDY    49  42  79 N10       30.09S
PHILIP         CLOUDY    52  46  80 NW8       30.08R
PINE RIDGE     CLOUDY    49  44  83 NE8       30.06F
SPEARFISH      LGT RAIN  43  43 100 NW6       30.11S
WINNER         CLOUDY    54  49  83 N10       30.03S
$$

SDZ004>011-016>023-039-040-250200-
NORTHEAST SOUTH DAKOTA

CITY           SKY/WX    TMP DP  RH WIND       PRES   REMARKS
ABERDEEN       CLOUDY    53  49  86 N12       30.02R
WATERTOWN      CLOUDY    53  52  96 NW10      29.97R
BROOKINGS      CLOUDY    55  52  89 NW12      29.97S
SISSETON         N/A     54  52  93 NW16      29.96R
$$

SDZ017-020-022-023-036>040-048>070-250200-
SOUTHEAST SOUTH DAKOTA

CITY           SKY/WX    TMP DP  RH WIND       PRES   REMARKS
SIOUX FALLS    LGT RAIN  59  56  89 NW8       29.98R
HURON          CLOUDY    54  50  86 NW10      30.00R
CHAMBERLAIN    CLOUDY    56  52  87 N9        30.03S
MITCHELL       CLOUDY    56  53  90 NW9       29.99S
YANKTON        CLOUDY    57  54  89 NW7       29.99R
$$

ABBREVIATIONS USED IN REMARKS
   TC - TEMPERATURE IN CELSIUS
  WCI - WIND CHILL INDEX
   HX - HEAT INDEX
  VSB - VISIBILITY





USA.gov is the U.S. government's official web portal to all federal, state and local government web resources and services.